Tracking 30743 objects as of 22-Jun-2025
HD Live streaming from Space Station
objects crossing your sky now

COSMOS 1275 DEB

Track COSMOS 1275 DEB now!
10-day predictions


NORAD ID: 13815
Int'l Code: 1981-053HN
Perigee: 886.4 km
Apogee: 1,046.8 km
Inclination: 83.0 °
Period: 104.3 minutes
Semi major axis: 7337 km
RCS: 0.0181 m2 (small)
Launch date: June 4, 1981
Source: Commonwealth of Independent States (former USSR) (CIS)
Launch site: PLESETSK MISSILE AND SPACE COMPLEX (PKMTR)

Note: This is SATELLITE DEBRIS
Your satellite tracking list
Your tracking list is empty




NASA's NSSDC Master Catalog

Two Line Element Set (TLE):
1 13815U 81053HK  25173.33845510  .00001485  00000-0  13249-2 0  9991
2 13815  83.0242 139.7676 0109284   8.7067 147.6086 13.81257635119789
Source of the keplerian elements: AFSPC